This demonstration page uses our WeatherBlox Daily Observations layout. Learn more.

Left ArrowRight Arrow

Hourly Observations for March 10, 2018

Temp ( °F °C ) Dew Point ( °F °C ) Humidity (%) Winds ( mph kmh ) Pressure ( in mb ) Visibility ( mi km ) Precip ( " mm )
12:54 am 00:54 Clear 34 1.1 25 -3.9 70 70 SE 9 15 29.91 1013 10 16 0.00 0.00
1:54 am 01:54 Clear 32 0 24 -4.4 73 73 SSE 7 11 29.91 1013 10 16 0.00 0.00
2:54 am 02:54 Mostly Clear 32 0 24 -4.4 73 73 SE 6 9 29.88 1012 10 16 0.00 0.00
3:54 am 03:54 Mostly Cloudy 34 1.1 24 -4.4 67 67 ESE 9 15 29.86 1011 10 16 0.00 0.00
4:54 am 04:54 Cloudy 34 1.1 24 -4.4 67 67 S 3 6 29.88 1012 10 16 0.00 0.00
5:54 am 05:54 Mostly Cloudy 34 1.1 24 -4.4 67 67 SE 6 9 29.88 1012 10 16 0.00 0.00
6:54 am 06:54 Sunny 28 -2.2 22 -5.6 78 78 S 7 11 29.90 1013 10 16 0.00 0.00
7:54 am 07:54 Sunny 33 0.6 24 -4.4 70 70 SSE 6 9 29.91 1013 10 16 0.00 0.00
8:54 am 08:54 Sunny 36 2.2 25 -3.9 64 64 SE 12 19 29.91 1013 10 16 0.00 0.00
9:54 am 09:54 Sunny 40 4.4 27 -2.8 60 60 SE 10 17 29.90 1013 10 16 0.00 0.00
10:54 am 10:54 Sunny 44 6.7 28 -2.2 53 53 S 13 20 29.88 1012 10 16 0.00 0.00
11:54 am 11:54 Sunny 47 8.3 29 -1.7 50 50 S 13 20 29.88 1012 10 16 0.00 0.00
12:54 pm 12:54 Sunny 49 9.4 30 -1.1 48 48 SE 10 17 29.85 1011 10 16 0.00 0.00
1:54 pm 13:54 Sunny 51 10.6 31 -0.6 46 46 SSE 12 19 29.84 1011 10 16 0.00 0.00
2:54 pm 14:54 Sunny 52 11.1 30 -1.1 43 43 SSW 7 11 29.83 1010 10 16 0.00 0.00
3:54 pm 15:54 Sunny 52 11.1 29 -1.7 41 41 W 6 9 29.85 1011 10 16 0.00 0.00
4:54 pm 16:54 Sunny 54 12.2 29 -1.7 38 38 NW 7 11 29.87 1012 9 14 0.00 0.00
5:54 pm 17:54 Sunny 51 10.6 29 -1.7 43 43 NNW 12 19 29.91 1013 9 14 0.00 0.00
6:54 pm 18:54 Mostly Cloudy 48 8.9 30 -1.1 50 50 NNW 9 15 29.96 1015 10 16 0.00 0.00
7:54 pm 19:54 Cloudy 48 8.9 32 0 54 54 NW 10 17 29.99 1016 10 16 0.00 0.00
8:54 pm 20:54 Cloudy 45 7.2 31 -0.6 58 58 NW 18 30 30.02 1017 9 14 0.00 0.00
9:54 pm 21:54 Cloudy 43 6.1 30 -1.1 60 60 NNW 20 31 30.04 1017 8 13 0.00 0.00
10:54 pm 22:54 Cloudy 41 5 31 -0.6 67 67 NW 18 30 30.06 1018 8 13 0.00 0.00
11:32 pm 23:32 Cloudy 39 3.9 33 0.6 79 79 NW 21 33 30.12 1020 9 14 0.00 0.00
11:45 pm 23:45 Cloudy 38 3.3 32 0 79 79 NW 21 33 30.12 1020 10 16 0.00 0.00
11:54 pm 23:54 Cloudy 38 3.3 32 0 79 79 NW 24 39 30.08 1019 10 16 0.00 0.00

Powered by AerisWeather